User: anonymous   Login
Location: Trondheim
(63.4170°N, 10.4170°E)
Time: 03:51:08
(UTC+02:00)
Language:

Iridium 82 - Orbit

View from above orbital plane
View from above orbital plane
View from above satellite
View from above satellite

Ground track
Ground track

The orbit data is extracted from the following two-line orbital elements,

1 25467U 98051A   15181.46500018  .00000188  00000-0  59926-4 0  9999
2 25467 086.3976 322.0844 0002625 092.4918 267.6578 14.34218506883741
Epoch (UTC): 30 June 2015 11:09:36
Eccentricity: 0.0002625
inclination: 86.3976°
perigee height: 776 km
apogee height: 779 km
right ascension of ascending node: 322.0844°
argument of perigee: 92.4918°
revolutions per day: 14.34218506
mean anomaly at epoch: 267.6578°
orbit number at epoch: 88374

The dashed part of the orbit path shows where the satellite is in the earth's shadow,  

DLR